SKY MUSTER 2

Last updated on Oct. 23, 2020, 5:56 a.m. UTC

1 41794U 16060B   20296.85467692 -.00000259  00000-0  00000-0 0  9991
2 41794   0.0143 246.9205 0001396 312.2104 285.1013  1.00271278 14839
UTC
Height (km)
Latitude
Longitude
Inclination
Orbital Period
UTC large
Height (km)
Speed (km/s)
/
Latitude / Longitude
Inclination (degrees)
Orbital Period (minutes)
Azimuth
Elevation
Range (km)
Doppler Factor
iOS Compass Heading
iOS Angle

Next 30 passes for location: Hong Kong

Rise time Rise Azimuth (degrees) Set time Set Azimuth (degrees) Duration Max altitude (degrees)

No matching passes for this satellites